TimeCDT,TemperatureF,Dew PointF,Humidity,Sea Level PressureIn,VisibilityMPH,Wind Direction,Wind SpeedMPH,Gust SpeedMPH,PrecipitationIn,Events,Conditions,WindDirDegrees,DateUTC
12:52 AM,41.0,33.1,73,30.01,10.0,NNE,4.6,-,N/A,,Clear,30,2012-10-31 05:52:00
1:52 AM,41.0,30.9,67,30.01,10.0,NNE,3.5,-,N/A,,Clear,20,2012-10-31 06:52:00
2:52 AM,39.0,30.9,73,30.02,10.0,NNE,3.5,-,N/A,,Clear,20,2012-10-31 07:52:00
3:52 AM,39.9,30.0,68,30.02,10.0,NNE,4.6,-,N/A,,Clear,30,2012-10-31 08:52:00
4:52 AM,39.0,28.9,67,30.01,10.0,NE,4.6,-,N/A,,Clear,40,2012-10-31 09:52:00
5:52 AM,33.1,28.9,85,30.03,10.0,NW,3.5,-,N/A,,Clear,320,2012-10-31 10:52:00
6:52 AM,36.0,30.0,79,30.04,10.0,North,4.6,-,N/A,,Clear,10,2012-10-31 11:52:00
7:52 AM,34.0,28.9,82,30.08,10.0,NNW,3.5,-,N/A,,Scattered Clouds,330,2012-10-31 12:52:00
8:52 AM,39.0,32.0,76,30.09,10.0,North,3.5,-,N/A,,Partly Cloudy,360,2012-10-31 13:52:00
9:52 AM,48.0,32.0,54,30.09,10.0,ENE,4.6,-,N/A,,Partly Cloudy,70,2012-10-31 14:52:00
10:52 AM,52.0,32.0,47,30.09,10.0,Calm,Calm,-,N/A,,Clear,0,2012-10-31 15:52:00
11:52 AM,54.0,28.0,37,30.10,10.0,Calm,Calm,-,N/A,,Clear,0,2012-10-31 16:52:00
12:52 PM,57.9,30.0,35,30.08,10.0,WNW,4.6,-,N/A,,Partly Cloudy,300,2012-10-31 17:52:00
1:52 PM,61.0,32.0,34,30.05,10.0,NE,4.6,-,N/A,,Clear,50,2012-10-31 18:52:00
2:52 PM,63.0,33.1,33,30.03,10.0,Calm,Calm,-,N/A,,Clear,0,2012-10-31 19:52:00
3:52 PM,63.0,33.1,33,30.01,10.0,NNW,3.5,-,N/A,,Clear,330,2012-10-31 20:52:00
4:52 PM,63.0,34.0,34,30.00,10.0,Calm,Calm,-,N/A,,Clear,0,2012-10-31 21:52:00
5:52 PM,61.0,34.0,36,30.01,10.0,Calm,Calm,-,N/A,,Clear,0,2012-10-31 22:52:00
6:52 PM,51.1,37.0,59,30.02,10.0,Calm,Calm,-,N/A,,Clear,0,2012-10-31 23:52:00
7:52 PM,48.0,37.0,66,30.04,10.0,Calm,Calm,-,N/A,,Clear,0,2012-11-01 00:52:00
8:52 PM,46.0,37.0,71,30.04,10.0,ESE,3.5,-,N/A,,Clear,110,2012-11-01 01:52:00
9:52 PM,45.0,37.0,74,30.04,10.0,Calm,Calm,-,N/A,,Clear,0,2012-11-01 02:52:00
10:52 PM,44.1,36.0,73,30.05,10.0,Calm,Calm,-,N/A,,Clear,0,2012-11-01 03:52:00
11:52 PM,39.9,35.1,83,30.04,10.0,Calm,Calm,-,N/A,,Clear,0,2012-11-01 04:52:00